Weather History for KAEX - December, 2005

Change the Weather History Date:

Saturday, December 31, 2005

  Actual Average Record
Temperature  
Mean Temperature 57 °F 49 °F  
Max Temperature 71 °F 59 °F 81 °F (1984)
Min Temperature 43 °F 39 °F 13 °F (1983)
Degree Days  
Heating Degree Days 8 16  
Month to date heating degree days 493 465  
Since 1 July heating degree days 791 789  
Growing Degree Days 6 (Base 50)    
Moisture  
Dew Point 47 °F    
Average Humidity 78    
Maximum Humidity 96    
Minimum Humidity 34    
Precipitation  
Precipitation 0.00 in 0.13 in 2.39 in (1911)
Month to date precipitation 3.80 6.12  
Year to date precipitation 34.86 55.92  
Snow  
Snow 0.00 in - 0.00 in ()
Month to date snowfall 0.0  
Since 1 July snowfall 0.0  
Snow Depth 0.00 in    
Sea Level Pressure  
Sea Level Pressure 29.89 in    
Wind  
Wind Speed 3 mph (SE)    
Max Wind Speed 10 mph    
Max Gust Speed -    
Visibility 5 miles    
Events Fog    
T = Trace of Precipitation, MM = Missing Value Source: NWS Daily Summary

Daily Weather History Graph

Daily Weather History Graph

Search for Another Location

Airport or City:

Trip Planner

Search our weather history database for the weather conditions in past years. The results will help you decide how hot, cold, wet, or windy it might be!

Date:

Astronomy

Dec. 31, 2005 Rise Set
Actual Time 7:09 AM CST 5:17 PM CST
Civil Twilight 6:42 AM CST 5:44 PM CST
Nautical Twilight 6:12 AM CST 6:14 PM CST
Astronomical Twilight 5:42 AM CST 6:44 PM CST
Moon 7:57 AM CST 5:57 PM CST
Length of Visible Light 11h 02m
Length of Day
10h 08m
New Moon, 1% of the Moon is Illuminated
Dec 31
New Moon
Jan 6
First Quarter
Jan 14
Full
Jan 22
Last Quarter
Jan 29
New

Hourly Weather History & Observations

Time (CST) Temp. Dew Point Humidity Pressure Visibility Wind Dir Wind Speed Gust Speed Precip Events Conditions
12:42 AM 48.2 °F 46.4 °F 93% 29.87 in 0.2 mi Calm Calm - N/A Fog Shallow Fog
12:53 AM 46.9 °F 45.0 °F 93% 29.88 in 0.2 mi Calm Calm - N/A Fog Shallow Fog
1:53 AM 46.0 °F 45.0 °F 96% 29.88 in 0.2 mi Calm Calm - 0.01 in Fog Shallow Fog
2:31 AM 44.6 °F 42.8 °F 93% 29.88 in 1.2 mi Calm Calm - N/A Fog Shallow Fog
2:34 AM 44.6 °F 42.8 °F 93% 29.88 in 3.0 mi Calm Calm - N/A Fog Shallow Fog
2:37 AM 44.6 °F 42.8 °F 93% 29.88 in 1.8 mi Calm Calm - N/A Fog Shallow Fog
2:44 AM 46.4 °F 44.6 °F 93% 29.88 in 0.2 mi Calm Calm - N/A Fog Shallow Fog
2:53 AM 45.0 °F 43.0 °F 93% 29.90 in 0.5 mi Calm Calm - N/A Fog Shallow Fog
3:39 AM 42.8 °F 41.0 °F 93% 29.90 in 1.0 mi Calm Calm - N/A Fog Shallow Fog
3:53 AM 44.1 °F 42.1 °F 93% 29.91 in 3.0 mi Calm Calm - N/A Fog Shallow Fog
4:53 AM 46.0 °F 44.1 °F 93% 29.93 in 6.0 mi Calm Calm - N/A Fog Shallow Fog
6:53 AM 46.9 °F 44.1 °F 90% 29.95 in 9.0 mi Calm Calm - N/A Fog Shallow Fog
7:53 AM 52.0 °F 39.9 °F 63% 29.97 in 10.0 mi ENE 3.5 mph - N/A Fog Shallow Fog
8:53 AM 55.9 °F 39.0 °F 53% 29.98 in 10.0 mi ENE 4.6 mph - N/A Fog Shallow Fog
9:53 AM 60.1 °F 36.0 °F 41% 29.99 in 10.0 mi East 8.1 mph - N/A Fog Shallow Fog
10:53 AM 63.0 °F 36.0 °F 37% 29.97 in 10.0 mi ESE 8.1 mph - N/A Fog Shallow Fog
11:53 AM 66.9 °F 37.9 °F 34% 29.93 in 10.0 mi ESE 9.2 mph - N/A Fog Shallow Fog
12:53 PM 69.1 °F 45.0 °F 42% 29.90 in 10.0 mi ESE 10.4 mph - N/A Fog Shallow Fog
1:53 PM 69.1 °F 52.0 °F 54% 29.87 in 10.0 mi ESE 9.2 mph - N/A Fog Shallow Fog
2:53 PM 70.0 °F 53.1 °F 55% 29.87 in 10.0 mi East 6.9 mph - N/A Fog Shallow Fog
3:53 PM 71.1 °F 54.0 °F 55% 29.86 in 8.0 mi SSE 6.9 mph - N/A   Partly Cloudy
4:53 PM 66.0 °F 55.9 °F 70% 29.85 in 8.0 mi SSE 4.6 mph - N/A   Clear
5:53 PM 62.1 °F 55.0 °F 78% 29.86 in 8.0 mi ESE 4.6 mph - N/A   Clear
6:53 PM 59.0 °F 53.1 °F 81% 29.86 in 7.0 mi SE 5.8 mph - N/A   Clear
7:53 PM 55.9 °F 52.0 °F 87% 29.86 in 6.0 mi SSE 6.9 mph - N/A   Scattered Clouds
8:53 PM 55.9 °F 53.1 °F 90% 29.85 in 5.0 mi SSE 8.1 mph - N/A   Partly Cloudy
9:53 PM 61.0 °F 57.0 °F 87% 29.83 in 3.0 mi SSE 10.4 mph - N/A   Clear
10:53 PM 59.0 °F 57.0 °F 93% 29.83 in 3.0 mi SSE 6.9 mph - N/A   Clear
11:03 PM 57.2 °F 55.4 °F 94% 29.82 in 2.5 mi SSE 5.8 mph - N/A   Clear
11:17 PM 60.8 °F 57.2 °F 88% 29.82 in 3.0 mi SSE 6.9 mph - N/A   Clear
11:53 PM 59.0 °F 55.9 °F 90% 29.83 in 0.8 mi SSE 4.6 mph - N/A   Clear